Year,Month,Day,Hour,Minute,Value (Times are PST for temperature in C)
2019,05,28,00,00,21.10
2019,05,28,00,01,21.20
2019,05,28,00,02,21.20
2019,05,28,00,03,21.20
2019,05,28,00,04,21.20
2019,05,28,00,05,21.30
2019,05,28,00,06,21.20
2019,05,28,00,07,21.20
2019,05,28,00,08,21.10
2019,05,28,00,09,21.00
2019,05,28,00,10,21.00
2019,05,28,00,11,20.90
2019,05,28,00,12,20.80
2019,05,28,00,13,20.80
2019,05,28,00,14,20.70
2019,05,28,00,15,20.60
2019,05,28,00,16,20.60
2019,05,28,00,17,20.60
2019,05,28,00,18,20.70
2019,05,28,00,19,20.80
2019,05,28,00,20,20.80
2019,05,28,00,21,20.80
2019,05,28,00,22,20.90
2019,05,28,00,23,21.00
2019,05,28,00,24,21.10
2019,05,28,00,25,21.10
2019,05,28,00,26,21.20
2019,05,28,00,27,21.20
2019,05,28,00,28,21.30
2019,05,28,00,29,21.30
2019,05,28,00,30,21.40
2019,05,28,00,31,21.40
2019,05,28,00,32,21.40
2019,05,28,00,33,21.40
2019,05,28,00,34,21.40
2019,05,28,00,35,21.40
2019,05,28,00,36,21.40
2019,05,28,00,37,21.40
2019,05,28,00,38,21.30
2019,05,28,00,39,21.30
2019,05,28,00,40,21.20
2019,05,28,00,41,21.10
2019,05,28,00,42,21.00
2019,05,28,00,43,20.90
2019,05,28,00,44,20.80
2019,05,28,00,45,20.80
2019,05,28,00,46,20.70
2019,05,28,00,47,20.60
2019,05,28,00,48,20.40
2019,05,28,00,49,20.30
2019,05,28,00,50,20.10
2019,05,28,00,51,20.00
2019,05,28,00,52,19.90
2019,05,28,00,53,19.80
2019,05,28,00,54,19.70
2019,05,28,00,55,19.60
2019,05,28,00,56,19.50
2019,05,28,00,57,19.40
2019,05,28,00,58,19.30
2019,05,28,00,59,19.30
2019,05,28,01,00,19.20
2019,05,28,01,01,19.20
2019,05,28,01,02,19.10
2019,05,28,01,03,19.00
2019,05,28,01,04,18.90
2019,05,28,01,05,18.90
2019,05,28,01,06,18.80
2019,05,28,01,07,18.80
2019,05,28,01,08,18.70
2019,05,28,01,09,18.60
2019,05,28,01,10,18.50
2019,05,28,01,11,18.30
2019,05,28,01,12,18.20
2019,05,28,01,13,18.10
2019,05,28,01,14,18.10
2019,05,28,01,15,18.00
2019,05,28,01,16,17.90
2019,05,28,01,17,17.80
2019,05,28,01,18,17.80
2019,05,28,01,19,17.70
2019,05,28,01,20,17.70
2019,05,28,01,21,17.70
2019,05,28,01,22,17.60
2019,05,28,01,23,17.60
2019,05,28,01,24,17.60
2019,05,28,01,25,17.60
2019,05,28,01,26,17.60
2019,05,28,01,27,17.60
2019,05,28,01,28,17.60
2019,05,28,01,29,17.60
2019,05,28,01,30,17.60
2019,05,28,01,31,17.50
2019,05,28,01,32,17.50
2019,05,28,01,33,17.50
2019,05,28,01,34,17.40
2019,05,28,01,35,17.40
2019,05,28,01,36,17.40
2019,05,28,01,37,17.40
2019,05,28,01,38,17.30
2019,05,28,01,39,17.30
2019,05,28,01,40,17.30
2019,05,28,01,41,17.20
2019,05,28,01,42,17.20
2019,05,28,01,43,17.10
2019,05,28,01,44,17.10
2019,05,28,01,45,17.10
2019,05,28,01,46,17.00
2019,05,28,01,47,17.00
2019,05,28,01,48,16.90
2019,05,28,01,49,16.90
2019,05,28,01,50,16.90
2019,05,28,01,51,16.90
2019,05,28,01,52,16.90
2019,05,28,01,53,16.90
2019,05,28,01,54,16.90
2019,05,28,01,55,16.90
2019,05,28,01,56,16.90
2019,05,28,01,57,16.90
2019,05,28,01,58,16.80
2019,05,28,01,59,16.80
2019,05,28,02,00,16.80
2019,05,28,02,01,16.80
2019,05,28,02,02,16.80
2019,05,28,02,03,16.80
2019,05,28,02,04,16.80
2019,05,28,02,05,16.80
2019,05,28,02,06,16.70
2019,05,28,02,07,16.70
2019,05,28,02,08,16.70
2019,05,28,02,09,16.70
2019,05,28,02,10,16.70
2019,05,28,02,11,16.70
2019,05,28,02,12,16.80
2019,05,28,02,13,16.80
2019,05,28,02,14,16.80
2019,05,28,02,15,16.80
2019,05,28,02,16,16.80
2019,05,28,02,17,16.80
2019,05,28,02,18,16.90
2019,05,28,02,19,16.90
2019,05,28,02,20,16.90
2019,05,28,02,21,17.00
2019,05,28,02,22,17.10
2019,05,28,02,23,17.10
2019,05,28,02,24,17.20
2019,05,28,02,25,17.20
2019,05,28,02,26,17.20
2019,05,28,02,27,17.30
2019,05,28,02,28,17.30
2019,05,28,02,29,17.30
2019,05,28,02,30,17.30
2019,05,28,02,31,17.30
2019,05,28,02,32,17.30
2019,05,28,02,33,17.30
2019,05,28,02,34,17.30
2019,05,28,02,35,17.30
2019,05,28,02,36,17.30
2019,05,28,02,37,17.30
2019,05,28,02,38,17.30
2019,05,28,02,39,17.30
2019,05,28,02,40,17.30
2019,05,28,02,41,17.30
2019,05,28,02,42,17.30
2019,05,28,02,43,17.30
2019,05,28,02,44,17.30
2019,05,28,02,45,17.30
2019,05,28,02,46,17.30
2019,05,28,02,47,17.30
2019,05,28,02,48,17.20
2019,05,28,02,49,17.20
2019,05,28,02,50,17.20
2019,05,28,02,51,17.10
2019,05,28,02,52,17.10
2019,05,28,02,53,17.10
2019,05,28,02,54,17.00
2019,05,28,02,55,16.90
2019,05,28,02,56,16.80
2019,05,28,02,57,16.80
2019,05,28,02,58,16.70
2019,05,28,02,59,16.70
2019,05,28,03,00,16.60
2019,05,28,03,01,16.60
2019,05,28,03,02,16.50
2019,05,28,03,03,16.40
2019,05,28,03,04,16.40
2019,05,28,03,05,16.40
2019,05,28,03,06,16.30
2019,05,28,03,07,16.30
2019,05,28,03,08,16.30
2019,05,28,03,09,16.20
2019,05,28,03,10,16.20
2019,05,28,03,11,16.20
2019,05,28,03,12,16.10
2019,05,28,03,13,16.10
2019,05,28,03,14,16.10
2019,05,28,03,15,16.00
2019,05,28,03,16,16.00
2019,05,28,03,17,15.90
2019,05,28,03,18,15.90
2019,05,28,03,19,15.90
2019,05,28,03,20,15.90
2019,05,28,03,21,15.80
2019,05,28,03,22,15.80
2019,05,28,03,23,15.80
2019,05,28,03,24,15.80
2019,05,28,03,25,15.70
2019,05,28,03,26,15.70
2019,05,28,03,27,15.70
2019,05,28,03,28,15.70
2019,05,28,03,29,15.60
2019,05,28,03,30,15.60
2019,05,28,03,31,15.60
2019,05,28,03,32,15.50
2019,05,28,03,33,15.50
2019,05,28,03,34,15.40
2019,05,28,03,35,15.40
2019,05,28,03,36,15.30
2019,05,28,03,37,15.30
2019,05,28,03,38,15.30
2019,05,28,03,39,15.20
2019,05,28,03,40,15.20
2019,05,28,03,41,15.10
2019,05,28,03,42,15.10
2019,05,28,03,43,15.00
2019,05,28,03,44,15.00
2019,05,28,03,45,14.90
2019,05,28,03,46,14.90
2019,05,28,03,47,14.90
2019,05,28,03,48,14.90
2019,05,28,03,49,14.90
2019,05,28,03,50,14.80
2019,05,28,03,51,14.80
2019,05,28,03,52,14.80
2019,05,28,03,53,14.80
2019,05,28,03,54,14.80
2019,05,28,03,55,14.70
2019,05,28,03,56,14.70
2019,05,28,03,57,14.70
2019,05,28,03,58,14.70
2019,05,28,03,59,14.70
2019,05,28,04,00,14.70
2019,05,28,04,01,14.70
2019,05,28,04,02,14.60
2019,05,28,04,03,14.60
2019,05,28,04,04,14.60
2019,05,28,04,05,14.60
2019,05,28,04,06,14.60
2019,05,28,04,07,14.50
2019,05,28,04,08,14.50
2019,05,28,04,09,14.50
2019,05,28,04,10,14.50
2019,05,28,04,11,14.50
2019,05,28,04,12,14.50
2019,05,28,04,13,14.40
2019,05,28,04,14,14.40
2019,05,28,04,15,14.40
2019,05,28,04,16,14.40
2019,05,28,04,17,14.40
2019,05,28,04,18,14.40
2019,05,28,04,19,14.40
2019,05,28,04,20,14.40
2019,05,28,04,21,14.40
2019,05,28,04,22,14.40
2019,05,28,04,23,14.40
2019,05,28,04,24,14.30
2019,05,28,04,25,14.30
2019,05,28,04,26,14.30
2019,05,28,04,27,14.30
2019,05,28,04,28,14.30
2019,05,28,04,29,14.30
2019,05,28,04,30,14.30
2019,05,28,04,31,14.30
2019,05,28,04,32,14.30
2019,05,28,04,33,14.30
2019,05,28,04,34,14.30
2019,05,28,04,35,14.20
2019,05,28,04,36,14.20
2019,05,28,04,37,14.20
2019,05,28,04,38,14.20
2019,05,28,04,39,14.20
2019,05,28,04,40,14.20
2019,05,28,04,41,14.20
2019,05,28,04,42,14.20
2019,05,28,04,43,14.10
2019,05,28,04,44,14.10
2019,05,28,04,45,14.10
2019,05,28,04,46,14.10
2019,05,28,04,47,14.10
2019,05,28,04,48,14.00
2019,05,28,04,49,14.00
2019,05,28,04,50,14.00
2019,05,28,04,51,14.00
2019,05,28,04,52,13.90
2019,05,28,04,53,13.90
2019,05,28,04,54,13.90
2019,05,28,04,55,13.90
2019,05,28,04,56,13.90
2019,05,28,04,57,13.90
2019,05,28,04,58,13.80
2019,05,28,04,59,13.90
2019,05,28,05,00,13.80
2019,05,28,05,01,13.80
2019,05,28,05,02,13.80
2019,05,28,05,03,13.80
2019,05,28,05,04,13.80
2019,05,28,05,05,13.80
2019,05,28,05,06,13.80
2019,05,28,05,07,13.70
2019,05,28,05,08,13.70
2019,05,28,05,09,13.70
2019,05,28,05,10,13.70
2019,05,28,05,11,13.70
2019,05,28,05,12,13.70
2019,05,28,05,13,13.70
2019,05,28,05,14,13.70
2019,05,28,05,15,13.70
2019,05,28,05,16,13.70
2019,05,28,05,17,13.60
2019,05,28,05,18,13.60
2019,05,28,05,19,13.60
2019,05,28,05,20,13.60
2019,05,28,05,21,13.60
2019,05,28,05,22,13.60
2019,05,28,05,23,13.60
2019,05,28,05,24,13.60
2019,05,28,05,25,13.60
2019,05,28,05,26,13.50
2019,05,28,05,27,13.50
2019,05,28,05,28,13.50
2019,05,28,05,29,13.50
2019,05,28,05,30,13.40
2019,05,28,05,31,13.40
2019,05,28,05,32,13.40
2019,05,28,05,33,13.40
2019,05,28,05,34,13.40
2019,05,28,05,35,13.40
2019,05,28,05,36,13.40
2019,05,28,05,37,13.30
2019,05,28,05,38,13.30
2019,05,28,05,39,13.30
2019,05,28,05,40,13.30
2019,05,28,05,41,13.30
2019,05,28,05,42,13.30
2019,05,28,05,43,13.30
2019,05,28,05,44,13.30
2019,05,28,05,45,13.30
2019,05,28,05,46,13.30
2019,05,28,05,47,13.20
2019,05,28,05,48,13.20
2019,05,28,05,49,13.20
2019,05,28,05,50,13.20
2019,05,28,05,51,13.20
2019,05,28,05,52,13.20
2019,05,28,05,53,13.20
2019,05,28,05,54,13.20
2019,05,28,05,55,13.20
2019,05,28,05,56,13.20
2019,05,28,05,57,13.20
2019,05,28,05,58,13.20
2019,05,28,05,59,13.20
2019,05,28,06,00,13.20
2019,05,28,06,01,13.20
2019,05,28,06,02,13.20
2019,05,28,06,03,13.20
2019,05,28,06,04,13.20
2019,05,28,06,05,13.20
2019,05,28,06,06,13.10
2019,05,28,06,07,13.10
2019,05,28,06,08,13.10
2019,05,28,06,09,13.10
2019,05,28,06,10,13.10
2019,05,28,06,11,13.10
2019,05,28,06,12,13.10
2019,05,28,06,13,13.10
2019,05,28,06,14,13.10
2019,05,28,06,15,13.10
2019,05,28,06,16,13.10
2019,05,28,06,17,13.10
2019,05,28,06,18,13.10
2019,05,28,06,19,13.10
2019,05,28,06,20,13.10
2019,05,28,06,21,13.10
2019,05,28,06,22,13.20
2019,05,28,06,23,13.20
2019,05,28,06,24,13.20
2019,05,28,06,25,13.20
2019,05,28,06,26,13.30
2019,05,28,06,27,13.30
2019,05,28,06,28,13.30
2019,05,28,06,29,13.30
2019,05,28,06,30,13.30
2019,05,28,06,31,13.30
2019,05,28,06,32,13.30
2019,05,28,06,33,13.30
2019,05,28,06,34,13.30
2019,05,28,06,35,13.30
2019,05,28,06,36,13.30
2019,05,28,06,37,13.30
2019,05,28,06,38,13.30
2019,05,28,06,39,13.40
2019,05,28,06,40,13.40
2019,05,28,06,41,13.40
2019,05,28,06,42,13.50
2019,05,28,06,43,13.50
2019,05,28,06,44,13.50
2019,05,28,06,45,13.60
2019,05,28,06,46,13.60
2019,05,28,06,47,13.60
2019,05,28,06,48,13.60
2019,05,28,06,49,13.60
2019,05,28,06,50,13.70
2019,05,28,06,51,13.70
2019,05,28,06,52,13.70
2019,05,28,06,53,13.70
2019,05,28,06,54,13.70
2019,05,28,06,55,13.70
2019,05,28,06,56,13.70
2019,05,28,06,57,13.80
2019,05,28,06,58,13.80
2019,05,28,06,59,13.80
2019,05,28,07,00,13.90
2019,05,28,07,01,13.90
2019,05,28,07,02,13.90
2019,05,28,07,03,14.00
2019,05,28,07,04,14.10
2019,05,28,07,05,14.10
2019,05,28,07,06,14.20
2019,05,28,07,07,14.30
2019,05,28,07,08,14.30
2019,05,28,07,09,14.30
2019,05,28,07,10,14.40
2019,05,28,07,11,14.40
2019,05,28,07,12,14.50
2019,05,28,07,13,14.50
2019,05,28,07,14,14.60
2019,05,28,07,15,14.60
2019,05,28,07,16,14.70
2019,05,28,07,17,14.70
2019,05,28,07,18,14.70
2019,05,28,07,19,14.70
2019,05,28,07,20,14.80
2019,05,28,07,21,14.90
2019,05,28,07,22,15.00
2019,05,28,07,23,15.00
2019,05,28,07,24,15.10
2019,05,28,07,25,15.20
2019,05,28,07,26,15.30
2019,05,28,07,27,15.40
2019,05,28,07,28,15.50
2019,05,28,07,29,15.50
2019,05,28,07,30,15.60
2019,05,28,07,31,15.70
2019,05,28,07,32,15.80
2019,05,28,07,33,15.90
2019,05,28,07,34,16.00
2019,05,28,07,35,16.10
2019,05,28,07,36,16.20
2019,05,28,07,37,16.30
2019,05,28,07,38,16.40
2019,05,28,07,39,16.50
2019,05,28,07,40,16.60
2019,05,28,07,41,16.70
2019,05,28,07,42,16.80
2019,05,28,07,43,16.80
2019,05,28,07,44,16.90
2019,05,28,07,45,17.00
2019,05,28,07,46,17.10
2019,05,28,07,47,17.20
2019,05,28,07,48,17.30
2019,05,28,07,49,17.40
2019,05,28,07,50,17.50
2019,05,28,07,51,17.60
2019,05,28,07,52,17.70
2019,05,28,07,53,17.70
2019,05,28,07,54,17.80
2019,05,28,07,55,17.90
2019,05,28,07,56,18.00
2019,05,28,07,57,18.10
2019,05,28,07,58,18.10
2019,05,28,07,59,18.10
2019,05,28,08,00,18.10
2019,05,28,08,01,18.00
2019,05,28,08,02,18.00
2019,05,28,08,03,17.90
2019,05,28,08,04,17.90
2019,05,28,08,05,17.80
2019,05,28,08,06,17.80
2019,05,28,08,07,17.70
2019,05,28,08,08,17.70
2019,05,28,08,09,17.70
2019,05,28,08,10,17.70
2019,05,28,08,11,17.70
2019,05,28,08,12,17.70
2019,05,28,08,13,17.70
2019,05,28,08,14,17.70
2019,05,28,08,15,17.70
2019,05,28,08,16,17.70
2019,05,28,08,17,17.70
2019,05,28,08,18,17.70
2019,05,28,08,19,17.70
2019,05,28,08,20,17.70
2019,05,28,08,21,17.70
2019,05,28,08,22,17.70
2019,05,28,08,23,17.70
2019,05,28,08,24,17.80
2019,05,28,08,25,17.80
2019,05,28,08,26,17.80
2019,05,28,08,27,17.80
2019,05,28,08,28,17.80
2019,05,28,08,29,17.80
2019,05,28,08,30,17.80
2019,05,28,08,31,17.80
2019,05,28,08,32,17.80
2019,05,28,08,33,17.80
2019,05,28,08,34,17.80
2019,05,28,08,35,17.80
2019,05,28,08,36,17.80
2019,05,28,08,37,17.80
2019,05,28,08,38,17.80
2019,05,28,08,39,17.80
2019,05,28,08,40,17.90
2019,05,28,08,41,17.90
2019,05,28,08,42,17.90
2019,05,28,08,43,17.90
2019,05,28,08,44,17.90
2019,05,28,08,45,18.00
2019,05,28,08,46,18.00
2019,05,28,08,47,18.10
2019,05,28,08,48,18.10
2019,05,28,08,49,18.20
2019,05,28,08,50,18.20
2019,05,28,08,51,18.30
2019,05,28,08,52,18.40
2019,05,28,08,53,18.40
2019,05,28,08,54,18.40
2019,05,28,08,55,18.50
2019,05,28,08,56,18.50
2019,05,28,08,57,18.60
2019,05,28,08,58,18.60
2019,05,28,08,59,18.60
2019,05,28,09,00,18.70
2019,05,28,09,01,18.70
2019,05,28,09,02,18.70
2019,05,28,09,03,18.70
2019,05,28,09,04,18.70
2019,05,28,09,05,18.70
2019,05,28,09,06,18.80
2019,05,28,09,07,18.80
2019,05,28,09,08,18.80
2019,05,28,09,09,18.90
2019,05,28,09,10,18.90
2019,05,28,09,11,19.00
2019,05,28,09,12,19.00
2019,05,28,09,13,19.00
2019,05,28,09,14,19.00
2019,05,28,09,15,18.90
2019,05,28,09,16,18.90
2019,05,28,09,17,18.90
2019,05,28,09,18,19.00
2019,05,28,09,19,19.00
2019,05,28,09,20,19.00
2019,05,28,09,21,19.00
2019,05,28,09,22,19.10
2019,05,28,09,23,19.00
2019,05,28,09,24,19.00
2019,05,28,09,25,19.10
2019,05,28,09,26,19.10
2019,05,28,09,27,19.10
2019,05,28,09,28,19.00
2019,05,28,09,29,19.00
2019,05,28,09,30,18.90
2019,05,28,09,31,18.80
2019,05,28,09,32,18.80
2019,05,28,09,33,18.70
2019,05,28,09,34,18.60
2019,05,28,09,35,18.60
2019,05,28,09,36,18.50
2019,05,28,09,37,18.40
2019,05,28,09,38,18.30
2019,05,28,09,39,18.20
2019,05,28,09,40,18.10
2019,05,28,09,41,18.10
2019,05,28,09,42,18.00
2019,05,28,09,43,18.00
2019,05,28,09,44,17.90
2019,05,28,09,45,17.90
2019,05,28,09,46,17.90
2019,05,28,09,47,17.90
2019,05,28,09,48,17.90
2019,05,28,09,49,17.90
2019,05,28,09,50,17.90
2019,05,28,09,51,17.90
2019,05,28,09,52,17.90
2019,05,28,09,53,18.00
2019,05,28,09,54,18.00
2019,05,28,09,55,18.00
2019,05,28,09,56,17.90
2019,05,28,09,57,17.90
2019,05,28,09,58,17.80
2019,05,28,09,59,17.80
2019,05,28,10,00,17.80
2019,05,28,10,01,17.70
2019,05,28,10,02,17.60
2019,05,28,10,03,17.50
2019,05,28,10,04,17.40
2019,05,28,10,05,17.40
2019,05,28,10,06,17.30
2019,05,28,10,07,17.30
2019,05,28,10,08,17.20
2019,05,28,10,09,17.20
2019,05,28,10,10,17.20
2019,05,28,10,11,17.20
2019,05,28,10,12,17.20
2019,05,28,10,13,17.30
2019,05,28,10,14,17.30
2019,05,28,10,15,17.30
2019,05,28,10,16,17.30
2019,05,28,10,17,17.40
2019,05,28,10,18,17.40
2019,05,28,10,19,17.40
2019,05,28,10,20,17.40
2019,05,28,10,21,17.30
2019,05,28,10,22,17.40
2019,05,28,10,23,17.40
2019,05,28,10,24,17.50
2019,05,28,10,25,17.50
2019,05,28,10,26,17.50
2019,05,28,10,27,17.50
2019,05,28,10,28,17.50
2019,05,28,10,29,17.50
2019,05,28,10,30,17.50
2019,05,28,10,31,17.40
2019,05,28,10,32,17.40
2019,05,28,10,33,17.40
2019,05,28,10,34,17.40
2019,05,28,10,35,17.40
2019,05,28,10,36,17.40
2019,05,28,10,37,17.40
2019,05,28,10,38,17.40
2019,05,28,10,39,17.40
2019,05,28,10,40,17.40
2019,05,28,10,41,17.50
2019,05,28,10,42,17.50
2019,05,28,10,43,17.60
2019,05,28,10,44,17.60
2019,05,28,10,45,17.70
2019,05,28,10,46,17.70
2019,05,28,10,47,17.70
2019,05,28,10,48,17.80
2019,05,28,10,49,17.80
2019,05,28,10,50,17.80
2019,05,28,10,51,17.80
2019,05,28,10,52,17.80
2019,05,28,10,53,17.80
2019,05,28,10,54,17.80
2019,05,28,10,55,17.90
2019,05,28,10,56,18.00
2019,05,28,10,57,18.00
2019,05,28,10,58,18.00
2019,05,28,10,59,17.90
2019,05,28,11,00,17.90
2019,05,28,11,01,17.90
2019,05,28,11,02,17.90
2019,05,28,11,03,17.90
2019,05,28,11,04,18.00
2019,05,28,11,05,18.00
2019,05,28,11,06,18.10
2019,05,28,11,07,18.20
2019,05,28,11,08,18.20
2019,05,28,11,09,18.20
2019,05,28,11,10,18.10
2019,05,28,11,11,18.10
2019,05,28,11,12,18.10
2019,05,28,11,13,18.10
2019,05,28,11,14,18.10
2019,05,28,11,15,18.10
2019,05,28,11,16,18.10
2019,05,28,11,17,18.10
2019,05,28,11,18,18.10
2019,05,28,11,19,18.20
2019,05,28,11,20,18.20
2019,05,28,11,21,18.20
2019,05,28,11,22,18.30
2019,05,28,11,23,18.30
2019,05,28,11,24,18.30
2019,05,28,11,25,18.40
2019,05,28,11,26,18.30
2019,05,28,11,27,18.30
2019,05,28,11,28,18.30
2019,05,28,11,29,18.30
2019,05,28,11,30,18.30
2019,05,28,11,31,18.30
2019,05,28,11,32,18.30
2019,05,28,11,33,18.30
2019,05,28,11,34,18.30
2019,05,28,11,35,18.30
2019,05,28,11,36,18.20
2019,05,28,11,37,18.20
2019,05,28,11,38,18.10
2019,05,28,11,39,18.10
2019,05,28,11,40,18.10
2019,05,28,11,41,18.20
2019,05,28,11,42,18.20
2019,05,28,11,43,18.30
2019,05,28,11,44,18.30
2019,05,28,11,45,18.30
2019,05,28,11,46,18.30
2019,05,28,11,47,18.30
2019,05,28,11,48,18.20
2019,05,28,11,49,18.20
2019,05,28,11,50,18.10
2019,05,28,11,51,18.10
2019,05,28,11,52,18.10
2019,05,28,11,53,18.10
2019,05,28,11,54,18.10
2019,05,28,11,55,18.10
2019,05,28,11,56,18.10
2019,05,28,11,57,18.10
2019,05,28,11,58,18.10
2019,05,28,11,59,18.00
2019,05,28,12,00,18.00
2019,05,28,12,01,18.00
2019,05,28,12,02,18.00
2019,05,28,12,03,18.10
2019,05,28,12,04,18.00
2019,05,28,12,05,18.00
2019,05,28,12,06,17.90
2019,05,28,12,07,18.00
2019,05,28,12,08,17.90
2019,05,28,12,09,18.00
2019,05,28,12,10,18.00
2019,05,28,12,11,18.10
2019,05,28,12,12,18.10
2019,05,28,12,13,18.20
2019,05,28,12,14,18.20
2019,05,28,12,15,18.30
2019,05,28,12,16,18.30
2019,05,28,12,17,18.40
2019,05,28,12,18,18.50
2019,05,28,12,19,18.50
2019,05,28,12,20,18.60
2019,05,28,12,21,18.70
2019,05,28,12,22,18.70
2019,05,28,12,23,18.70
2019,05,28,12,24,18.70
2019,05,28,12,25,18.70
2019,05,28,12,26,18.60
2019,05,28,12,27,18.50
2019,05,28,12,28,18.50
2019,05,28,12,29,18.40
2019,05,28,12,30,18.40
2019,05,28,12,31,18.30
2019,05,28,12,32,18.30
2019,05,28,12,33,18.30
2019,05,28,12,34,18.30
2019,05,28,12,35,18.30
2019,05,28,12,36,18.30
2019,05,28,12,37,18.30
2019,05,28,12,38,18.30
2019,05,28,12,39,18.30
2019,05,28,12,40,18.30
2019,05,28,12,41,18.30
2019,05,28,12,42,18.30
2019,05,28,12,43,18.40
2019,05,28,12,44,18.40
2019,05,28,12,45,18.40
2019,05,28,12,46,18.30
2019,05,28,12,47,18.30
2019,05,28,12,48,18.40
2019,05,28,12,49,18.40
2019,05,28,12,50,18.30
2019,05,28,12,51,18.30
2019,05,28,12,52,18.30
2019,05,28,12,53,18.30
2019,05,28,12,54,18.30
2019,05,28,12,55,18.30
2019,05,28,12,56,18.40
2019,05,28,12,57,18.40
2019,05,28,12,58,18.40
2019,05,28,12,59,18.40
2019,05,28,13,00,18.40
2019,05,28,13,01,18.30
2019,05,28,13,02,18.30
2019,05,28,13,03,18.30
2019,05,28,13,04,18.40
2019,05,28,13,05,18.40
2019,05,28,13,06,18.40
2019,05,28,13,07,18.40
2019,05,28,13,08,18.40
2019,05,28,13,09,18.50
2019,05,28,13,10,18.60
2019,05,28,13,11,18.70
2019,05,28,13,12,18.60
2019,05,28,13,13,18.60
2019,05,28,13,14,18.60
2019,05,28,13,15,18.60
2019,05,28,13,16,18.60
2019,05,28,13,17,18.60
2019,05,28,13,18,18.60
2019,05,28,13,19,18.60
2019,05,28,13,20,18.70
2019,05,28,13,21,18.80
2019,05,28,13,22,18.80
2019,05,28,13,23,18.80
2019,05,28,13,24,18.80
2019,05,28,13,25,18.80
2019,05,28,13,26,18.90
2019,05,28,13,27,18.90
2019,05,28,13,28,18.90
2019,05,28,13,29,18.90
2019,05,28,13,30,18.90
2019,05,28,13,31,18.80
2019,05,28,13,32,18.80
2019,05,28,13,33,18.80
2019,05,28,13,34,18.80
2019,05,28,13,35,18.70
2019,05,28,13,36,18.70
2019,05,28,13,37,18.70
2019,05,28,13,38,18.70
2019,05,28,13,39,18.60
2019,05,28,13,40,18.70
2019,05,28,13,41,18.70
2019,05,28,13,42,18.80
2019,05,28,13,43,18.90
2019,05,28,13,44,19.00
2019,05,28,13,45,19.10
2019,05,28,13,46,19.10
2019,05,28,13,47,19.10
2019,05,28,13,48,19.00
2019,05,28,13,49,19.00
2019,05,28,13,50,19.00
2019,05,28,13,51,19.00
2019,05,28,13,52,19.10
2019,05,28,13,53,19.00
2019,05,28,13,54,19.00
2019,05,28,13,55,19.00
2019,05,28,13,56,19.00
2019,05,28,13,57,19.00
2019,05,28,13,58,19.00
2019,05,28,13,59,18.90
2019,05,28,14,00,18.90
2019,05,28,14,01,18.90
2019,05,28,14,02,18.80
2019,05,28,14,03,18.80
2019,05,28,14,04,18.80
2019,05,28,14,05,18.80
2019,05,28,14,06,18.70
2019,05,28,14,07,18.70
2019,05,28,14,08,18.60
2019,05,28,14,09,18.60
2019,05,28,14,10,18.60
2019,05,28,14,11,18.70
2019,05,28,14,12,18.70
2019,05,28,14,13,18.70
2019,05,28,14,14,18.80
2019,05,28,14,15,18.80
2019,05,28,14,16,18.80
2019,05,28,14,17,18.80
2019,05,28,14,18,18.80
2019,05,28,14,19,18.80
2019,05,28,14,20,18.80
2019,05,28,14,21,18.80
2019,05,28,14,22,18.90
2019,05,28,14,23,18.90
2019,05,28,14,24,18.90
2019,05,28,14,25,18.90
2019,05,28,14,26,19.00
2019,05,28,14,27,19.00
2019,05,28,14,28,19.00
2019,05,28,14,29,18.90
2019,05,28,14,30,18.90
2019,05,28,14,31,18.90
2019,05,28,14,32,18.90
2019,05,28,14,33,18.90
2019,05,28,14,34,19.00
2019,05,28,14,35,19.10
2019,05,28,14,36,19.10
2019,05,28,14,37,19.10
2019,05,28,14,38,19.10
2019,05,28,14,39,19.20
2019,05,28,14,40,19.20
2019,05,28,14,41,19.20
2019,05,28,14,42,19.30
2019,05,28,14,43,19.30
2019,05,28,14,44,19.30
2019,05,28,14,45,19.30
2019,05,28,14,46,19.30
2019,05,28,14,47,19.20
2019,05,28,14,48,19.20
2019,05,28,14,49,19.10
2019,05,28,14,50,19.10
2019,05,28,14,51,19.00
2019,05,28,14,52,19.00
2019,05,28,14,53,18.90
2019,05,28,14,54,18.90
2019,05,28,14,55,18.90
2019,05,28,14,56,18.90
2019,05,28,14,57,18.90
2019,05,28,14,58,18.90
2019,05,28,14,59,18.90
2019,05,28,15,00,19.00
2019,05,28,15,01,19.00
2019,05,28,15,02,18.90
2019,05,28,15,03,18.90
2019,05,28,15,04,18.90
2019,05,28,15,05,18.90
2019,05,28,15,06,18.90
2019,05,28,15,07,18.90
2019,05,28,15,08,18.90
2019,05,28,15,09,18.90
2019,05,28,15,10,18.90
2019,05,28,15,11,19.00
2019,05,28,15,12,19.00
2019,05,28,15,13,19.10
2019,05,28,15,14,19.10
2019,05,28,15,15,19.20
2019,05,28,15,16,19.20
2019,05,28,15,17,19.10
2019,05,28,15,18,19.10
2019,05,28,15,19,19.10
2019,05,28,15,20,19.10
2019,05,28,15,21,19.10
2019,05,28,15,22,19.20
2019,05,28,15,23,19.20
2019,05,28,15,24,19.20
2019,05,28,15,25,19.20
2019,05,28,15,26,19.20
2019,05,28,15,27,19.20
2019,05,28,15,28,19.20
2019,05,28,15,29,19.10
2019,05,28,15,30,19.10
2019,05,28,15,31,19.20
2019,05,28,15,32,19.20
2019,05,28,15,33,19.20
2019,05,28,15,34,19.30
2019,05,28,15,35,19.30
2019,05,28,15,36,19.30
2019,05,28,15,37,19.40
2019,05,28,15,38,19.50
2019,05,28,15,39,19.60
2019,05,28,15,40,19.70
2019,05,28,15,41,19.80
2019,05,28,15,42,19.80
2019,05,28,15,43,19.70
2019,05,28,15,44,19.60
2019,05,28,15,45,19.50
2019,05,28,15,46,19.40
2019,05,28,15,47,19.30
2019,05,28,15,48,19.30
2019,05,28,15,49,19.30
2019,05,28,15,50,19.20
2019,05,28,15,51,19.30
2019,05,28,15,52,19.30
2019,05,28,15,53,19.30
2019,05,28,15,54,19.30
2019,05,28,15,55,19.30
2019,05,28,15,56,19.20
2019,05,28,15,57,19.20
2019,05,28,15,58,19.20
2019,05,28,15,59,19.10
2019,05,28,16,00,19.10
2019,05,28,16,01,19.10
2019,05,28,16,02,19.10
2019,05,28,16,03,19.10
2019,05,28,16,04,19.10
2019,05,28,16,05,19.10
2019,05,28,16,06,19.10
2019,05,28,16,07,19.10
2019,05,28,16,08,19.10
2019,05,28,16,09,19.10
2019,05,28,16,10,19.10
2019,05,28,16,11,19.10
2019,05,28,16,12,19.00
2019,05,28,16,13,19.00
2019,05,28,16,14,18.90
2019,05,28,16,15,18.90
2019,05,28,16,16,18.90
2019,05,28,16,17,18.90
2019,05,28,16,18,18.90
2019,05,28,16,19,18.90
2019,05,28,16,20,18.90
2019,05,28,16,21,18.90
2019,05,28,16,22,19.00
2019,05,28,16,23,19.00
2019,05,28,16,24,19.00
2019,05,28,16,25,19.00
2019,05,28,16,26,19.10
2019,05,28,16,27,19.10
2019,05,28,16,28,19.10
2019,05,28,16,29,19.20
2019,05,28,16,30,19.30
2019,05,28,16,31,19.40
2019,05,28,16,32,19.50
2019,05,28,16,33,19.50
2019,05,28,16,34,19.60
2019,05,28,16,35,19.60
2019,05,28,16,36,19.60
2019,05,28,16,37,19.60
2019,05,28,16,38,19.60
2019,05,28,16,39,19.50
2019,05,28,16,40,19.50
2019,05,28,16,41,19.50
2019,05,28,16,42,19.50
2019,05,28,16,43,19.50
2019,05,28,16,44,19.50
2019,05,28,16,45,19.50
2019,05,28,16,46,19.50
2019,05,28,16,47,19.50
2019,05,28,16,48,19.40
2019,05,28,16,49,19.50
2019,05,28,16,50,19.50
2019,05,28,16,51,19.50
2019,05,28,16,52,19.50
2019,05,28,16,53,19.50
2019,05,28,16,54,19.50
2019,05,28,16,55,19.40
2019,05,28,16,56,19.40
2019,05,28,16,57,19.30
2019,05,28,16,58,19.30
2019,05,28,16,59,19.30
2019,05,28,17,00,19.30
2019,05,28,17,01,19.30
2019,05,28,17,02,19.30
2019,05,28,17,03,19.30
2019,05,28,17,04,19.40
2019,05,28,17,05,19.40
2019,05,28,17,06,19.40
2019,05,28,17,07,19.40
2019,05,28,17,08,19.40
2019,05,28,17,09,19.40
2019,05,28,17,10,19.40
2019,05,28,17,11,19.40
2019,05,28,17,12,19.40
2019,05,28,17,13,19.40
2019,05,28,17,14,19.40
2019,05,28,17,15,19.30
2019,05,28,17,16,19.40
2019,05,28,17,17,19.40
2019,05,28,17,18,19.40
2019,05,28,17,19,19.50